MAU53 EGKK-FIMP

Flight info

Callsign MAU53
Flight time N/A
Altitude 35000
Route SFD1X SFD Y47 DRAKE L151 SITET UN859 SOPIL DCT BALAN DCT EVPOK DCT NARAK/N0485F370 DCT GAI DCT LOMRA DCT ROCAN DCT PUMAL N859 MOGIL UB31 ZEM/N0487F360 UM989 BSA/N0484F370 UR985 RIMEL UA605 DJA UB730 RAKOM/N0488F390 UB730 DIR UM731 FL UT325 POGBA/N0486F400 UT325 SIPKI/N0489F390 UW325 SEZIM/N0484F410 UW325 NN UA401 DV UG661 ANVOR DCT TIBAG TIBAG2E
Aircraft A359/H-SDE2E3GHIJ3J4J5LM1ORWXY/LB1D1

Departure

Time 2026-05-03 23:43
Airport London Gatwick Airport (EGKK)

Arrival

Time N/A
Airport Sir Seewoosagur Ramgoolam International Airport (FIMP)
Time Latitude Longitude Altitude Speed Heading
2026-05-03 23:21 51.15669 -0.17614 211 ft 0 kts 168°
2026-05-03 23:35 51.15687 -0.17621 217 ft 4 kts 169°
2026-05-03 23:35 51.15710 -0.17623 214 ft 2 kts 189°
2026-05-03 23:35 51.15728 -0.17620 215 ft 4 kts 160°
2026-05-03 23:36 51.15739 -0.17629 215 ft 4 kts 107°
2026-05-03 23:36 51.15741 -0.17662 218 ft 3 kts 77°
2026-05-03 23:36 51.15736 -0.17698 222 ft 1 kts 78°
2026-05-03 23:36 51.15736 -0.17699 222 ft 0 kts 78°
2026-05-03 23:39 51.15738 -0.17683 211 ft 5 kts 77°
2026-05-03 23:39 51.15751 -0.17590 218 ft 12 kts 81°
2026-05-03 23:39 51.15691 -0.17494 218 ft 16 kts 166°
2026-05-03 23:40 51.15568 -0.17452 219 ft 19 kts 168°
2026-05-03 23:40 51.15438 -0.17406 215 ft 19 kts 167°
2026-05-03 23:40 51.15306 -0.17359 217 ft 19 kts 165°
2026-05-03 23:40 51.15194 -0.17263 221 ft 13 kts 145°
2026-05-03 23:41 51.15136 -0.17172 218 ft 11 kts 138°
2026-05-03 23:41 51.15072 -0.17141 223 ft 8 kts 194°
2026-05-03 23:41 51.15058 -0.17206 221 ft 6 kts 287°
2026-05-03 23:41 51.15060 -0.17255 217 ft 0 kts 259°
2026-05-03 23:42 51.15038 -0.17422 221 ft 47 kts 257°
2026-05-03 23:42 51.14917 -0.18301 216 ft 114 kts 258°
2026-05-03 23:42 51.14704 -0.19837 231 ft 168 kts 257°
2026-05-03 23:43 51.14450 -0.21664 900 ft 167 kts 256°
2026-05-03 23:43 51.14174 -0.23546 1405 ft 188 kts 257°
2026-05-03 23:43 51.13860 -0.25653 1675 ft 205 kts 256°
2026-05-03 23:43 51.13510 -0.27993 1883 ft 224 kts 257°
2026-05-03 23:44 51.13192 -0.30389 2557 ft 220 kts 258°
2026-05-03 23:44 51.12885 -0.32756 3150 ft 222 kts 257°
2026-05-03 23:44 51.12560 -0.35172 3703 ft 225 kts 257°
2026-05-03 23:44 51.12226 -0.37630 4270 ft 227 kts 257°
2026-05-03 23:45 51.11826 -0.40073 4821 ft 228 kts 247°
2026-05-03 23:45 51.10934 -0.42086 5326 ft 229 kts 218°
2026-05-03 23:45 51.09471 -0.43067 5877 ft 230 kts 186°
2026-05-03 23:45 51.07856 -0.42874 6346 ft 238 kts 171°
2026-05-03 23:46 51.06181 -0.42323 6602 ft 253 kts 169°
2026-05-03 23:46 51.04430 -0.41708 7000 ft 262 kts 168°
2026-05-03 23:46 51.02637 -0.41015 7502 ft 267 kts 167°
2026-05-03 23:46 51.00852 -0.40267 8048 ft 270 kts 166°
2026-05-03 23:47 50.99020 -0.39458 8618 ft 274 kts 166°
2026-05-03 23:47 50.97166 -0.38619 9201 ft 277 kts 166°
2026-05-03 23:47 50.95327 -0.37779 9779 ft 280 kts 166°
2026-05-03 23:47 50.93437 -0.36917 10252 ft 287 kts 166°
2026-05-03 23:48 50.91468 -0.36026 10498 ft 300 kts 166°
2026-05-03 23:48 50.89492 -0.35136 10754 ft 313 kts 166°
2026-05-03 23:48 50.87379 -0.34188 11000 ft 325 kts 166°
2026-05-03 23:48 50.85154 -0.33190 11278 ft 337 kts 166°
2026-05-03 23:49 50.82855 -0.32159 11538 ft 348 kts 166°
2026-05-03 23:49 50.80483 -0.31096 11779 ft 358 kts 166°
2026-05-03 23:49 50.78079 -0.30020 12012 ft 368 kts 166°
2026-05-03 23:49 50.75588 -0.28904 12384 ft 373 kts 166°
2026-05-03 23:50 50.73069 -0.27776 12832 ft 376 kts 166°
2026-05-03 23:50 50.71393 -0.27027 13124 ft 378 kts 166°
2026-05-03 23:50 50.68014 -0.25518 13715 ft 382 kts 166°
2026-05-03 23:50 50.65442 -0.24373 14121 ft 384 kts 166°
2026-05-03 23:51 50.62887 -0.23236 14513 ft 386 kts 166°
2026-05-03 23:51 50.60281 -0.22079 14909 ft 389 kts 166°
2026-05-03 23:51 50.57666 -0.20919 15308 ft 391 kts 166°
2026-05-03 23:51 50.55019 -0.19746 15721 ft 393 kts 166°
2026-05-03 23:52 50.52410 -0.18592 16104 ft 395 kts 166°
2026-05-03 23:52 50.49735 -0.17410 16520 ft 398 kts 166°
2026-05-03 23:52 50.47057 -0.16227 16924 ft 400 kts 166°
2026-05-03 23:52 50.44399 -0.15055 17311 ft 402 kts 166°
2026-05-03 23:53 50.41686 -0.13860 17716 ft 405 kts 166°
2026-05-03 23:53 50.38955 -0.12658 18084 ft 407 kts 166°
2026-05-03 23:53 50.36252 -0.11471 18431 ft 409 kts 166°
2026-05-03 23:53 50.33503 -0.10264 18785 ft 411 kts 167°
2026-05-03 23:54 50.30739 -0.09052 19140 ft 412 kts 167°
2026-05-03 23:54 50.27965 -0.07837 19484 ft 414 kts 167°
2026-05-03 23:54 50.25211 -0.06632 19824 ft 415 kts 167°
2026-05-03 23:54 50.22419 -0.05412 20179 ft 417 kts 167°
2026-05-03 23:55 50.19618 -0.04190 20527 ft 418 kts 167°
2026-05-03 23:55 50.16807 -0.02965 20887 ft 419 kts 167°
2026-05-03 23:55 50.13989 -0.01739 21245 ft 421 kts 167°
2026-05-03 23:55 50.11185 -0.00520 21594 ft 422 kts 167°
2026-05-03 23:56 50.08325 0.00718 21963 ft 424 kts 167°
2026-05-03 23:56 50.05486 0.01881 22309 ft 425 kts 168°
2026-05-03 23:56 50.02604 0.03007 22663 ft 426 kts 169°
2026-05-03 23:56 49.99705 0.04120 23010 ft 428 kts 169°
2026-05-03 23:57 49.96841 0.05219 23368 ft 430 kts 169°
2026-05-03 23:57 49.93914 0.06348 23677 ft 431 kts 169°
2026-05-03 23:57 49.91030 0.07469 23995 ft 432 kts 169°
2026-05-03 23:57 49.88103 0.08612 24329 ft 433 kts 169°
2026-05-03 23:58 49.85164 0.09762 24660 ft 433 kts 169°
2026-05-03 23:58 49.82258 0.10900 24994 ft 434 kts 169°
2026-05-03 23:58 49.79322 0.12048 25324 ft 434 kts 169°
2026-05-03 23:58 49.76384 0.13195 25640 ft 435 kts 169°
2026-05-03 23:59 49.73480 0.14327 25976 ft 435 kts 170°
2026-05-03 23:59 49.70523 0.15478 26311 ft 436 kts 170°
2026-05-03 23:59 49.67564 0.16628 26652 ft 437 kts 170°
2026-05-03 23:59 49.64636 0.17785 27002 ft 437 kts 169°
2026-05-04 00:00 49.61679 0.18978 27338 ft 438 kts 169°
2026-05-04 00:00 49.58751 0.20167 27682 ft 439 kts 169°
2026-05-04 00:00 49.55781 0.21373 28010 ft 439 kts 170°
2026-05-04 00:00 49.52844 0.22562 28356 ft 440 kts 170°
2026-05-04 00:01 49.49873 0.23759 28681 ft 440 kts 170°
2026-05-04 00:01 49.46890 0.24956 29012 ft 441 kts 170°
2026-05-04 00:01 49.43959 0.26130 29337 ft 441 kts 170°
2026-05-04 00:01 49.40985 0.27318 29641 ft 441 kts 170°
2026-05-04 00:02 49.38001 0.28510 30060 ft 439 kts 170°
2026-05-04 00:02 49.35045 0.29691 30459 ft 436 kts 171°
2026-05-04 00:02 49.32109 0.30863 30768 ft 436 kts 171°
2026-05-04 00:02 49.29184 0.32035 31044 ft 436 kts 170°
2026-05-04 00:03 49.26285 0.33238 31311 ft 436 kts 170°
2026-05-04 00:03 49.23350 0.34482 31595 ft 436 kts 170°
2026-05-04 00:03 49.20412 0.35736 31873 ft 436 kts 170°
2026-05-04 00:03 49.17482 0.36984 32148 ft 435 kts 170°
2026-05-04 00:04 49.14599 0.38206 32430 ft 435 kts 170°
2026-05-04 00:04 49.11665 0.39443 32708 ft 435 kts 170°
2026-05-04 00:04 49.08774 0.40658 32974 ft 434 kts 170°
2026-05-04 00:04 49.05848 0.41883 33252 ft 434 kts 170°
2026-05-04 00:05 49.02920 0.43107 33514 ft 434 kts 170°
2026-05-04 00:05 49.00038 0.44310 33773 ft 434 kts 170°
2026-05-04 00:05 48.97120 0.45526 34015 ft 434 kts 170°
2026-05-04 00:05 48.94204 0.46740 34195 ft 434 kts 170°
2026-05-04 00:06 48.91301 0.47948 34340 ft 436 kts 170°
2026-05-04 00:06 48.88370 0.49166 34488 ft 437 kts 170°
2026-05-04 00:06 48.85423 0.50389 34646 ft 438 kts 170°
2026-05-04 00:06 48.82473 0.51611 34784 ft 440 kts 170°
2026-05-04 00:07 48.79541 0.52825 34918 ft 441 kts 170°
2026-05-04 00:07 48.76552 0.54054 34960 ft 445 kts 170°
2026-05-04 00:07 48.70504 0.56430 34964 ft 449 kts 171°
2026-05-04 00:08 48.64480 0.58761 34965 ft 448 kts 171°
2026-05-04 00:08 48.58425 0.61111 34962 ft 449 kts 170°
2026-05-04 00:09 48.52395 0.63458 34960 ft 449 kts 170°
2026-05-04 00:09 48.46337 0.65881 34961 ft 450 kts 169°
2026-05-04 00:10 48.40304 0.68355 34959 ft 450 kts 169°
2026-05-04 00:10 48.34269 0.70820 34962 ft 451 kts 170°
2026-05-04 00:11 48.28218 0.73271 34958 ft 451 kts 170°
2026-05-04 00:11 48.22123 0.75726 34963 ft 451 kts 170°
2026-05-04 00:12 48.16071 0.78105 34962 ft 451 kts 170°
2026-05-04 00:12 48.09987 0.80479 34963 ft 452 kts 170°
2026-05-04 00:13 48.03924 0.82847 34961 ft 452 kts 170°
2026-05-04 00:13 47.97813 0.85235 34962 ft 452 kts 170°
2026-05-04 00:14 47.91738 0.87604 34960 ft 453 kts 170°
2026-05-04 00:14 47.85652 0.89971 34959 ft 453 kts 170°
2026-05-04 00:15 47.79539 0.92350 34959 ft 453 kts 170°
2026-05-04 00:15 47.73456 0.94704 34962 ft 454 kts 170°
2026-05-04 00:16 47.67348 0.97058 34957 ft 454 kts 170°
2026-05-04 00:16 47.61211 0.99420 34962 ft 455 kts 170°
2026-05-04 00:17 47.55102 1.01768 34962 ft 455 kts 170°
2026-05-04 00:17 47.49981 1.03731 34959 ft 456 kts 170°
2026-05-04 00:18 47.42786 1.06110 34964 ft 451 kts 178°
2026-05-04 00:18 47.36570 1.06379 34964 ft 447 kts 184°
2026-05-04 00:19 47.30378 1.06224 34961 ft 446 kts 185°
2026-05-04 00:19 47.25212 1.06058 34961 ft 446 kts 185°
2026-05-04 00:20 47.18988 1.05884 34963 ft 446 kts 185°
2026-05-04 00:20 47.12795 1.05735 34964 ft 446 kts 185°
2026-05-04 00:21 47.06581 1.05592 34962 ft 446 kts 185°
2026-05-04 00:21 47.00387 1.05444 34966 ft 445 kts 185°
2026-05-04 00:22 46.94206 1.05188 34965 ft 444 kts 185°
2026-05-04 00:22 46.88044 1.04894 34968 ft 444 kts 185°
2026-05-04 00:23 46.81888 1.04616 34967 ft 444 kts 185°
2026-05-04 00:23 46.75690 1.04350 34965 ft 444 kts 185°
2026-05-04 00:24 46.69525 1.04090 34967 ft 444 kts 185°